| time (UTC) | temp F | wind direction | speed knots | gust knots | rain 1hr in | rain 24hr in | rain mn in | humidity % | barometer mb |
| 20260509180827 | 64 | 234 | 7.8 | 13.0 | 0.00 | 0.56 | 0.56 | 58 | 1008.2 |
| 20260509180323 | 64 | 242 | 6.1 | 13.0 | 0.00 | 0.56 | 0.56 | 58 | 1008.1 |
| 20260509175820 | 64 | 232 | 4.3 | 12.2 | 0.00 | 0.56 | 0.56 | 59 | 1008.0 |
| 20260509175316 | 65 | 124 | 5.2 | 9.6 | 0.00 | 0.56 | 0.56 | 59 | 1008.0 |
| 20260509174812 | 65 | 243 | 4.3 | 8.7 | 0.00 | 0.56 | 0.56 | 61 | 1008.1 |
| 20260509174308 | 64 | 211 | 2.6 | 6.1 | 0.00 | 0.56 | 0.56 | 63 | 1008.1 |
| 20260509173804 | 63 | 273 | 7.8 | 12.2 | 0.00 | 0.56 | 0.56 | 60 | 1007.8 |
| 20260509173300 | 63 | 239 | 5.2 | 9.6 | 0.00 | 0.56 | 0.56 | 62 | 1007.8 |
| 20260509172756 | 64 | 200 | 7.8 | 9.6 | 0.00 | 0.56 | 0.56 | 61 | 1007.8 |
| 20260509172253 | 64 | 185 | 3.5 | 7.0 | 0.00 | 0.56 | 0.56 | 63 | 1007.9 |
| 20260509171748 | 64 | 228 | 3.5 | 9.6 | 0.00 | 0.56 | 0.56 | 62 | 1007.9 |
| 20260509171245 | 64 | 214 | 2.6 | 4.3 | 0.00 | 0.56 | 0.56 | 65 | 1008.3 |
| 20260509170741 | 63 | 253 | 3.5 | 7.0 | 0.00 | 0.56 | 0.56 | 65 | 1008.1 |
| 20260509170237 | 63 | 194 | 2.6 | 6.1 | 0.00 | 0.56 | 0.56 | 65 | 1008.1 |
| 20260509165736 | 63 | 234 | 5.2 | 7.0 | 0.00 | 0.56 | 0.56 | 64 | 1008.2 |
| 20260509165231 | 63 | 230 | 3.5 | 8.7 | 0.00 | 0.56 | 0.56 | 63 | 1008.2 |
| 20260509164727 | 63 | 139 | 6.1 | 10.4 | 0.00 | 0.56 | 0.56 | 64 | 1008.4 |
| 20260509164223 | 62 | 266 | 1.7 | 4.3 | 0.00 | 0.56 | 0.56 | 66 | 1008.4 |
| 20260509163721 | 62 | 243 | 1.7 | 7.0 | 0.00 | 0.56 | 0.56 | 67 | 1008.2 |
| 20260509163217 | 62 | 237 | 7.0 | 7.0 | 0.00 | 0.56 | 0.56 | 67 | 1008.4 |
| 20260509162715 | 62 | 142 | 4.3 | 10.4 | 0.00 | 0.56 | 0.56 | 70 | 1008.4 |
| 20260509162210 | 60 | 235 | 2.6 | 8.7 | 0.00 | 0.56 | 0.56 | 73 | 1008.3 |
| 20260509161706 | 61 | 214 | 9.6 | 10.4 | 0.00 | 0.56 | 0.56 | 71 | 1008.5 |
| 20260509161202 | 60 | 238 | 2.6 | 6.1 | 0.00 | 0.56 | 0.56 | 77 | 1008.4 |
| 20260509160657 | 60 | 210 | 9.6 | 12.2 | 0.00 | 0.56 | 0.56 | 73 | 1008.4 |
| 20260509160153 | 60 | 192 | 6.1 | 10.4 | 0.00 | 0.56 | 0.56 | 74 | 1008.5 |
| 20260509155649 | 60 | 261 | 3.5 | 7.0 | 0.00 | 0.56 | 0.56 | 77 | 1008.5 |
| 20260509155146 | 59 | 263 | 7.0 | 9.6 | 0.00 | 0.56 | 0.56 | 76 | 1008.4 |
| 20260509154641 | 58 | 271 | 1.7 | 7.0 | 0.00 | 0.56 | 0.56 | 80 | 1008.5 |
| 20260509154139 | 58 | 262 | 1.7 | 3.5 | 0.00 | 0.56 | 0.56 | 80 | 1008.4 |
| 20260509153636 | 58 | 222 | 2.6 | 9.6 | 0.00 | 0.56 | 0.56 | 80 | 1008.4 |
| 20260509153132 | 58 | 160 | 2.6 | 7.0 | 0.00 | 0.56 | 0.56 | 81 | 1008.3 |
| 20260509152628 | 58 | 262 | 3.5 | 4.3 | 0.00 | 0.56 | 0.56 | 81 | 1008.5 |
| 20260509152126 | 58 | 251 | 4.3 | 9.6 | 0.00 | 0.56 | 0.56 | 81 | 1008.4 |
| 20260509151622 | 58 | 216 | 2.6 | 4.3 | 0.00 | 0.56 | 0.56 | 83 | 1008.4 |
| 20260509151120 | 58 | 221 | 7.8 | 8.7 | 0.00 | 0.56 | 0.56 | 81 | 1008.4 |
| 20260509150618 | 57 | 250 | 2.6 | 3.5 | 0.00 | 0.56 | 0.56 | 86 | 1008.4 |
| 20260509150116 | 56 | 268 | 4.3 | 6.1 | 0.00 | 0.56 | 0.56 | 87 | 1008.3 |
| 20260509145611 | 56 | 236 | 2.6 | 6.1 | 0.00 | 0.56 | 0.56 | 88 | 1008.2 |
| 20260509145106 | 56 | 207 | 1.7 | 2.6 | 0.00 | 0.56 | 0.56 | 90 | 1008.4 |
| 20260509144604 | 55 | 259 | 4.3 | 6.1 | 0.00 | 0.56 | 0.56 | 90 | 1008.5 |
| 20260509144100 | 55 | 221 | 1.7 | 7.0 | 0.00 | 0.56 | 0.56 | 91 | 1008.6 |
| 20260509143558 | 54 | 152 | 0.9 | 2.6 | 0.00 | 0.56 | 0.56 | 93 | 1008.4 |
| 20260509143055 | 54 | 220 | 1.7 | 4.3 | 0.00 | 0.56 | 0.56 | 92 | 1008.3 |
| 20260509142550 | 54 | 185 | 2.6 | 6.1 | 0.00 | 0.56 | 0.56 | 92 | 1008.4 |
| 20260509142047 | 54 | 202 | 1.7 | 4.3 | 0.00 | 0.56 | 0.56 | 92 | 1008.3 |
| 20260509141543 | 54 | 222 | 1.7 | 2.6 | 0.00 | 0.56 | 0.56 | 92 | 1008.2 |
| 20260509141040 | 54 | 258 | 1.7 | 6.1 | 0.00 | 0.56 | 0.56 | 92 | 1008.3 |
| 20260509140537 | 55 | 220 | 3.5 | 3.5 | 0.00 | 0.56 | 0.56 | 92 | 1008.3 |
| 20260509140035 | 54 | 235 | 2.6 | 7.0 | 0.00 | 0.56 | 0.56 | 93 | 1008.3 |
| 20260509135531 | 54 | 217 | 2.6 | 8.7 | 0.00 | 0.56 | 0.56 | 93 | 1008.5 |
| 20260509135029 | 54 | 250 | 2.6 | 7.0 | 0.00 | 0.56 | 0.56 | 94 | 1008.3 |
| 20260509134526 | 54 | 239 | 3.5 | 4.3 | 0.00 | 0.56 | 0.56 | 94 | 1008.3 |
| 20260509134024 | 53 | 156 | 2.6 | 3.5 | 0.00 | 0.56 | 0.56 | 95 | 1008.3 |
| 20260509133520 | 53 | 163 | 1.7 | 4.3 | 0.00 | 0.56 | 0.56 | 94 | 1008.4 |
| 20260509133018 | 53 | 216 | 2.6 | 7.0 | 0.00 | 0.56 | 0.56 | 95 | 1008.3 |
| 20260509132516 | 53 | 226 | 2.6 | 3.5 | 0.00 | 0.56 | 0.56 | 95 | 1008.3 |
| 20260509132014 | 53 | 186 | 2.6 | 3.5 | 0.00 | 0.56 | 0.56 | 95 | 1008.4 |
| 20260509131510 | 53 | 209 | 5.2 | 6.1 | 0.00 | 0.56 | 0.56 | 95 | 1008.4 |
| 20260509131007 | 53 | 220 | 5.2 | 6.1 | 0.00 | 0.56 | 0.56 | 95 | 1008.5 |
| 20260509130502 | 53 | 212 | 0.9 | 3.5 | 0.00 | 0.56 | 0.56 | 95 | 1008.6 |
| 20260509125959 | 52 | 207 | 3.5 | 6.1 | 0.00 | 0.56 | 0.56 | 95 | 1008.5 |
| 20260509125456 | 52 | 210 | 1.7 | 2.6 | 0.00 | 0.56 | 0.56 | 95 | 1008.8 |
| 20260509124951 | 52 | 221 | 2.6 | 4.3 | 0.00 | 0.56 | 0.56 | 95 | 1008.8 |
| 20260509124449 | 52 | 208 | 1.7 | 2.6 | 0.00 | 0.56 | 0.56 | 96 | 1008.9 |
| 20260509123946 | 52 | 247 | 2.6 | 4.3 | 0.00 | 0.56 | 0.56 | 96 | 1008.6 |
| 20260509123444 | 52 | 228 | 0.9 | 0.9 | 0.00 | 0.56 | 0.56 | 96 | 1008.7 |
| 20260509122939 | 52 | 223 | 0.9 | 0.9 | 0.00 | 0.56 | 0.56 | 96 | 1008.8 |
| 20260509122437 | 52 | 250 | 2.6 | 3.5 | 0.05 | 0.56 | 0.56 | 96 | 1008.8 |
| 20260509121933 | 52 | 196 | 0.9 | 0.9 | 0.05 | 0.56 | 0.56 | 96 | 1008.8 |
| 20260509121430 | 51 | 227 | 0.9 | 2.6 | 0.00 | 0.55 | 0.55 | 96 | 1008.9 |
| 20260509120928 | 51 | 186 | 0.9 | 2.6 | 0.00 | 0.55 | 0.55 | 96 | 1008.7 |
| 20260509120426 | 51 | 136 | 1.7 | 3.5 | 0.00 | 0.55 | 0.55 | 96 | 1008.8 |
| 20260509115924 | 51 | 204 | 1.7 | 2.6 | 0.00 | 0.55 | 0.55 | 96 | 1008.8 |
| 20260509115421 | 51 | 240 | 1.7 | 0.9 | 0.00 | 0.55 | 0.55 | 96 | 1008.8 |
| 20260509114918 | 51 | 240 | 0.0 | 0.9 | 0.00 | 0.55 | 0.55 | 96 | 1008.8 |
| 20260509114417 | 51 | 220 | 0.9 | 2.6 | 0.00 | 0.55 | 0.55 | 96 | 1008.8 |
| 20260509113916 | 51 | 230 | 0.0 | 0.9 | 0.00 | 0.55 | 0.55 | 96 | 1008.8 |
| 20260509113413 | 51 | 206 | 1.7 | 4.3 | 0.00 | 0.55 | 0.55 | 96 | 1008.9 |
| 20260509112909 | 51 | 213 | 2.6 | 2.6 | 0.07 | 0.55 | 0.55 | 96 | 1008.9 |
| 20260509112407 | 51 | 217 | 2.6 | 6.1 | 0.07 | 0.55 | 0.55 | 96 | 1008.6 |
| 20260509111904 | 51 | 226 | 1.7 | 2.6 | 0.00 | 0.54 | 0.54 | 96 | 1008.8 |
| 20260509111400 | 51 | 208 | 5.2 | 6.1 | 0.05 | 0.54 | 0.54 | 96 | 1008.5 |
| 20260509110858 | 51 | 218 | 1.7 | 4.3 | 0.00 | 0.53 | 0.53 | 96 | 1008.5 |
| 20260509110354 | 51 | 240 | 1.7 | 2.6 | 0.00 | 0.53 | 0.53 | 96 | 1008.6 |
| 20260509105852 | 51 | 226 | 2.6 | 4.3 | 0.00 | 0.53 | 0.53 | 96 | 1008.6 |
| 20260509105350 | 51 | 213 | 2.6 | 3.5 | 0.00 | 0.53 | 0.53 | 96 | 1008.4 |
| 20260509104847 | 51 | 211 | 0.9 | 2.6 | 0.00 | 0.53 | 0.53 | 96 | 1008.4 |
| 20260509104343 | 51 | 233 | 0.9 | 0.9 | 0.00 | 0.53 | 0.53 | 96 | 1008.6 |
| 20260509103841 | 51 | 229 | 2.6 | 4.3 | 0.00 | 0.53 | 0.53 | 96 | 1008.5 |
| 20260509103338 | 51 | 219 | 0.9 | 2.6 | 0.00 | 0.53 | 0.53 | 96 | 1008.3 |
| 20260509102837 | 51 | 191 | 0.9 | 0.9 | 0.07 | 0.53 | 0.53 | 96 | 1008.2 |
| 20260509102334 | 51 | 227 | 1.7 | 4.3 | 0.07 | 0.53 | 0.53 | 96 | 1008.6 |
| 20260509101829 | 51 | 157 | 1.7 | 2.6 | 0.00 | 0.52 | 0.52 | 96 | 1008.6 |
| 20260509101326 | 51 | 194 | 0.9 | 2.6 | 0.00 | 0.52 | 0.52 | 96 | 1008.5 |
| 20260509100824 | 51 | 212 | 0.9 | 3.5 | 0.00 | 0.52 | 0.52 | 96 | 1008.6 |
| 20260509100321 | 51 | 235 | 1.7 | 2.6 | 0.00 | 0.52 | 0.52 | 96 | 1008.6 |
| 20260509095817 | 51 | 143 | 0.9 | 2.6 | 0.05 | 0.52 | 0.52 | 96 | 1008.6 |
| 20260509095315 | 51 | 165 | 1.7 | 2.6 | 0.05 | 0.52 | 0.52 | 96 | 1008.6 |
| 20260509094812 | 51 | 160 | 1.7 | 2.6 | 0.00 | 0.51 | 0.51 | 96 | 1008.7 |
| 20260509094308 | 51 | 176 | 0.9 | 2.6 | 0.00 | 0.51 | 0.51 | 96 | 1008.8 |
| 20260509093806 | 51 | 232 | 0.9 | 2.6 | 0.00 | 0.51 | 0.51 | 96 | 1008.8 |
| 20260509093303 | 51 | 188 | 0.9 | 2.6 | 0.00 | 0.51 | 0.51 | 96 | 1008.8 |
| 20260509092802 | 51 | 217 | 1.7 | 3.5 | 0.07 | 0.51 | 0.51 | 96 | 1008.9 |
| 20260509092259 | 50 | 186 | 1.7 | 0.9 | 0.07 | 0.51 | 0.51 | 96 | 1008.7 |
| 20260509091757 | 50 | 227 | 1.7 | 3.5 | 0.00 | 0.50 | 0.50 | 96 | 1009.0 |
| 20260509091253 | 50 | 146 | 0.9 | 3.5 | 0.00 | 0.50 | 0.50 | 96 | 1009.0 |
| 20260509090751 | 50 | 126 | 0.9 | 3.5 | 0.00 | 0.50 | 0.50 | 97 | 1009.0 |
| 20260509090248 | 50 | 231 | 1.7 | 3.5 | 0.05 | 0.50 | 0.50 | 97 | 1008.9 |
| 20260509085745 | 50 | 143 | 0.0 | 3.5 | 0.19 | 0.50 | 0.50 | 97 | 1009.0 |
| 20260509085243 | 50 | 233 | 1.7 | 2.6 | 0.26 | 0.49 | 0.49 | 97 | 1009.1 |
| 20260509084739 | 50 | 8 | 0.9 | 0.9 | 0.17 | 0.47 | 0.47 | 97 | 1009.3 |
| 20260509084236 | 50 | 296 | 0.0 | 2.6 | 0.05 | 0.45 | 0.45 | 97 | 1009.2 |
| 20260509083734 | 50 | 106 | 0.9 | 2.6 | 0.00 | 0.44 | 0.44 | 96 | 1009.2 |
| 20260509083230 | 50 | 239 | 0.9 | 0.9 | 0.07 | 0.44 | 0.44 | 96 | 1009.3 |
| 20260509082727 | 50 | 217 | 0.0 | 0.0 | 0.07 | 0.44 | 0.44 | 96 | 1009.2 |
| 20260509082224 | 50 | 217 | 0.9 | 0.9 | 0.12 | 0.43 | 0.43 | 96 | 1009.1 |
| 20260509081720 | 50 | 230 | 0.0 | 0.9 | 0.12 | 0.42 | 0.42 | 96 | 1009.3 |
| 20260509081218 | 50 | 230 | 0.0 | 0.9 | 0.12 | 0.41 | 0.41 | 96 | 1009.4 |
| 20260509080716 | 50 | 253 | 1.7 | 2.6 | 0.19 | 0.40 | 0.40 | 96 | 1009.5 |
| 20260509080213 | 50 | 154 | 0.9 | 2.6 | 0.24 | 0.39 | 0.39 | 96 | 1009.3 |
| 20260509075711 | 50 | 196 | 0.9 | 3.5 | 0.19 | 0.37 | 0.37 | 96 | 1009.3 |
| 20260509075209 | 50 | 175 | 1.7 | 3.5 | 0.05 | 0.34 | 0.34 | 96 | 1009.2 |
| 20260509074705 | 50 | 138 | 2.6 | 4.3 | 0.12 | 0.33 | 0.33 | 96 | 1009.3 |
| 20260509074203 | 50 | 216 | 3.5 | 4.3 | 0.19 | 0.33 | 0.33 | 96 | 1009.3 |
| 20260509073659 | 50 | 188 | 2.6 | 3.5 | 0.19 | 0.31 | 0.31 | 96 | 1009.3 |
| 20260509073155 | 50 | 202 | 2.6 | 6.1 | 0.12 | 0.30 | 0.30 | 96 | 1009.5 |
| 20260509072652 | 50 | 252 | 1.7 | 3.5 | 0.05 | 0.28 | 0.28 | 96 | 1009.5 |
| 20260509072149 | 50 | 217 | 1.7 | 4.3 | 0.05 | 0.28 | 0.28 | 96 | 1009.5 |
| 20260509071645 | 50 | 218 | 2.6 | 4.3 | 0.00 | 0.27 | 0.27 | 96 | 1009.4 |
| 20260509071143 | 50 | 201 | 1.7 | 7.0 | 0.07 | 0.27 | 0.27 | 96 | 1009.4 |
| 20260509070640 | 50 | 119 | 2.6 | 3.5 | 0.19 | 0.27 | 0.27 | 96 | 1009.6 |
| 20260509070136 | 50 | 225 | 2.6 | 3.5 | 0.19 | 0.26 | 0.26 | 96 | 1009.4 |
| 20260509065632 | 50 | 165 | 6.1 | 6.1 | 0.12 | 0.24 | 0.24 | 96 | 1009.4 |
| 20260509065128 | 50 | 155 | 3.5 | 4.3 | 0.12 | 0.23 | 0.23 | 96 | 1009.5 |
| 20260509064626 | 50 | 166 | 1.7 | 2.6 | 0.07 | 0.22 | 0.22 | 96 | 1009.7 |
| 20260509064124 | 50 | 147 | 1.7 | 3.5 | 0.12 | 0.22 | 0.22 | 96 | 1009.6 |
| 20260509063620 | 50 | 155 | 0.9 | 4.3 | 0.05 | 0.21 | 0.21 | 96 | 1009.6 |
| 20260509063117 | 50 | 155 | 1.7 | 2.6 | 0.07 | 0.20 | 0.20 | 96 | 1009.6 |
| 20260509062614 | 50 | 159 | 0.9 | 2.6 | 0.12 | 0.20 | 0.20 | 96 | 1009.8 |
| 20260509062111 | 50 | 215 | 0.9 | 0.9 | 0.05 | 0.19 | 0.19 | 96 | 1010.0 |
| 20260509061608 | 50 | 238 | 1.7 | 2.6 | 0.00 | 0.18 | 0.18 | 96 | 1010.0 |
| 20260509061105 | 50 | 144 | 0.9 | 2.6 | 0.00 | 0.18 | 0.18 | 96 | 1009.9 |
| 20260509060603 | 50 | 150 | 0.0 | 0.9 | 0.07 | 0.18 | 0.18 | 96 | 1010.1 |
| 20260509060058 | 50 | 151 | 0.0 | 2.6 | 0.07 | 0.18 | 0.18 | 96 | 1010.1 |
| 20260509055554 | 50 | 148 | 0.9 | 0.9 | 0.05 | 0.17 | 0.17 | 96 | 1010.3 |
| 20260509055050 | 50 | 137 | 0.9 | 0.9 | 0.12 | 0.17 | 0.17 | 96 | 1010.3 |
| 20260509054547 | 50 | 138 | 0.9 | 2.6 | 0.12 | 0.16 | 0.16 | 96 | 1010.3 |
| 20260509054045 | 50 | 145 | 0.9 | 2.6 | 0.05 | 0.15 | 0.15 | 96 | 1010.3 |
| 20260509053543 | 50 | 155 | 0.9 | 2.6 | 0.19 | 0.14 | 0.14 | 96 | 1010.5 |
| 20260509053040 | 50 | 128 | 1.7 | 3.5 | 0.12 | 0.13 | 0.13 | 96 | 1010.5 |
| 20260509052538 | 50 | 134 | 0.9 | 2.6 | 0.07 | 0.11 | 0.11 | 96 | 1010.6 |
| 20260509052035 | 50 | 124 | 1.7 | 2.6 | 0.12 | 0.10 | 0.10 | 96 | 1010.5 |
| 20260509051533 | 50 | 141 | 2.6 | 3.5 | 0.12 | 0.09 | 0.09 | 96 | 1010.5 |
| 20260509051030 | 50 | 128 | 0.9 | 0.9 | 0.05 | 0.08 | 0.08 | 96 | 1010.6 |
| 20260509050527 | 50 | 127 | 0.0 | 0.9 | 0.05 | 0.08 | 0.08 | 96 | 1010.5 |
| 20260509050023 | 50 | 134 | 1.7 | 2.6 | 0.07 | 0.07 | 0.07 | 96 | 1010.5 |
| 20260509045520 | 50 | 145 | 1.7 | 3.5 | 0.07 | 0.07 | 0.07 | 96 | 1010.8 |
| 20260509045017 | 50 | 130 | 1.7 | 2.6 | 0.12 | 0.06 | 0.06 | 96 | 1010.8 |
| 20260509044515 | 50 | 128 | 2.6 | 2.6 | 0.17 | 0.06 | 0.06 | 96 | 1010.8 |
| 20260509044013 | 50 | 126 | 0.9 | 0.9 | 0.17 | 0.04 | 0.04 | 96 | 1010.8 |
| 20260509043508 | 50 | 126 | 0.0 | 0.0 | 0.12 | 0.03 | 0.03 | 96 | 1010.9 |
| 20260509043004 | 50 | 126 | 0.9 | 0.9 | 0.00 | 0.01 | 0.01 | 96 | 1011.0 |
| 20260509042500 | 50 | 126 | 0.0 | 0.9 | 0.07 | 0.01 | 0.01 | 96 | 1011.0 |
| 20260509041956 | 50 | 125 | 0.9 | 2.6 | 0.00 | 0.00 | 0.00 | 96 | 1011.1 |
| 20260509041453 | 50 | 126 | 2.6 | 2.6 | 0.00 | 0.00 | 0.00 | 96 | 1011.0 |
| 20260509040951 | 50 | 120 | 0.9 | 0.9 | 0.00 | 0.00 | 0.00 | 96 | 1011.1 |
| 20260509040449 | 50 | 120 | 0.0 | 0.9 | 0.00 | 0.00 | 0.00 | 96 | 1011.2 |
| 20260509035946 | 50 | 122 | 0.0 | 0.9 | 0.00 | 0.29 | 0.29 | 96 | 1011.1 |
| 20260509035442 | 50 | 122 | 0.0 | 0.0 | 0.05 | 0.29 | 0.29 | 96 | 1011.4 |
| 20260509034939 | 50 | 122 | 0.9 | 0.9 | 0.05 | 0.29 | 0.29 | 95 | 1011.4 |
| 20260509034437 | 50 | 123 | 0.9 | 0.9 | 0.00 | 0.28 | 0.28 | 95 | 1011.4 |
| 20260509033934 | 50 | 123 | 0.0 | 0.0 | 0.00 | 0.28 | 0.28 | 95 | 1011.4 |
| 20260509033431 | 50 | 123 | 0.0 | 2.6 | 0.07 | 0.28 | 0.28 | 95 | 1011.5 |
| 20260509032927 | 50 | 131 | 0.9 | 0.9 | 0.07 | 0.28 | 0.28 | 95 | 1011.5 |
| 20260509032425 | 50 | 135 | 0.0 | 0.9 | 0.07 | 0.27 | 0.27 | 95 | 1011.6 |
| 20260509031923 | 50 | 128 | 0.9 | 2.6 | 0.07 | 0.27 | 0.27 | 95 | 1011.7 |
| 20260509031420 | 50 | 209 | 0.9 | 2.6 | 0.05 | 0.26 | 0.26 | 95 | 1011.9 |
| 20260509030917 | 50 | 250 | 0.9 | 2.6 | 0.12 | 0.26 | 0.26 | 95 | 1011.9 |
| 20260509030415 | 50 | 174 | 2.6 | 2.6 | 0.07 | 0.25 | 0.25 | 95 | 1011.6 |
| 20260509025912 | 50 | 146 | 2.6 | 3.5 | 0.05 | 0.24 | 0.24 | 95 | 1011.8 |
| 20260509025408 | 50 | 136 | 0.9 | 2.6 | 0.05 | 0.24 | 0.24 | 95 | 1011.7 |
| 20260509024903 | 50 | 208 | 0.9 | 0.9 | 0.00 | 0.23 | 0.23 | 95 | 1011.8 |
| 20260509024359 | 50 | 222 | 0.0 | 3.5 | 0.07 | 0.23 | 0.23 | 95 | 1012.0 |
| 20260509023856 | 50 | 128 | 1.7 | 3.5 | 0.07 | 0.23 | 0.23 | 95 | 1011.9 |
| 20260509023354 | 50 | 152 | 0.9 | 4.3 | 0.00 | 0.22 | 0.22 | 95 | 1012.0 |
| 20260509022850 | 50 | 153 | 3.5 | 4.3 | 0.00 | 0.22 | 0.22 | 95 | 1012.0 |
| 20260509022347 | 50 | 135 | 0.9 | 0.9 | 0.05 | 0.22 | 0.22 | 95 | 1012.0 |
| 20260509021844 | 50 | 140 | 0.9 | 3.5 | 0.05 | 0.22 | 0.22 | 95 | 1011.9 |
| 20260509021341 | 50 | 135 | 0.0 | 2.6 | 0.07 | 0.21 | 0.21 | 96 | 1011.9 |
| 20260509020839 | 50 | 160 | 3.5 | 3.5 | 0.07 | 0.21 | 0.21 | 96 | 1012.0 |
| 20260509020337 | 50 | 126 | 0.0 | 0.9 | 0.05 | 0.20 | 0.20 | 96 | 1012.0 |
| 20260509015834 | 50 | 148 | 0.9 | 2.6 | 0.07 | 0.19 | 0.19 | 96 | 1012.0 |
| 20260509015332 | 50 | 130 | 0.9 | 2.6 | 0.07 | 0.19 | 0.19 | 95 | 1012.1 |
| 20260509014829 | 50 | 123 | 0.9 | 2.6 | 0.05 | 0.18 | 0.18 | 95 | 1012.3 |
| 20260509014326 | 50 | 138 | 1.7 | 3.5 | 0.12 | 0.18 | 0.18 | 95 | 1012.1 |
| 20260509013823 | 50 | 133 | 0.9 | 0.9 | 0.14 | 0.17 | 0.17 | 95 | 1012.1 |
| 20260509013319 | 50 | 138 | 0.9 | 0.9 | 0.12 | 0.16 | 0.16 | 95 | 1012.1 |
| 20260509012815 | 50 | 138 | 0.9 | 0.9 | 0.12 | 0.15 | 0.15 | 95 | 1012.1 |
| 20260509012312 | 50 | 138 | 0.0 | 0.0 | 0.12 | 0.14 | 0.14 | 95 | 1012.2 |
| 20260509011809 | 50 | 138 | 0.0 | 0.0 | 0.05 | 0.13 | 0.13 | 95 | 1011.8 |
| 20260509011306 | 50 | 138 | 0.0 | 0.9 | 0.00 | 0.12 | 0.12 | 95 | 1011.9 |
| 20260509010804 | 50 | 138 | 0.9 | 2.6 | 0.07 | 0.12 | 0.12 | 95 | 1011.9 |
| 20260509010300 | 50 | 211 | 0.9 | 0.9 | 0.07 | 0.12 | 0.12 | 95 | 1012.0 |
| 20260509005758 | 50 | 212 | 0.0 | 0.0 | 0.05 | 0.11 | 0.11 | 94 | 1011.9 |
| 20260509005256 | 50 | 212 | 0.9 | 0.0 | 0.05 | 0.11 | 0.11 | 94 | 1011.7 |
| 20260509004755 | 50 | 212 | 0.9 | 0.9 | 0.07 | 0.10 | 0.10 | 94 | 1011.6 |
| 20260509004252 | 50 | 212 | 0.0 | 0.9 | 0.07 | 0.10 | 0.10 | 94 | 1011.9 |
| 20260509003751 | 50 | 230 | 2.6 | 2.6 | 0.05 | 0.09 | 0.09 | 94 | 1011.9 |
| 20260509003248 | 50 | 242 | 0.9 | 0.9 | 0.07 | 0.08 | 0.08 | 94 | 1011.9 |
| 20260509002745 | 50 | 242 | 0.9 | 0.9 | 0.07 | 0.08 | 0.08 | 94 | 1011.6 |
| 20260509002242 | 50 | 256 | 0.0 | 2.6 | 0.12 | 0.08 | 0.08 | 94 | 1012.0 |
| 20260509001740 | 50 | 323 | 0.9 | 0.9 | 0.12 | 0.07 | 0.07 | 94 | 1012.0 |
| 20260509001236 | 50 | 13 | 0.9 | 0.9 | 0.05 | 0.05 | 0.05 | 93 | 1011.6 |
| 20260509000734 | 50 | 13 | 0.9 | 0.9 | 0.05 | 0.05 | 0.05 | 93 | 1011.6 |
| 20260509000231 | 50 | 13 | 0.9 | 0.9 | 0.00 | 0.04 | 0.04 | 93 | 1011.6 |
| 20260508235728 | 50 | 13 | 0.9 | 0.9 | 0.00 | 0.04 | 0.04 | 93 | 1011.6 |
| 20260508235224 | 51 | 13 | 0.0 | 0.0 | 0.00 | 0.04 | 0.04 | 92 | 1011.1 |
| 20260508234721 | 51 | 13 | 0.0 | 0.0 | 0.00 | 0.04 | 0.04 | 92 | 1011.4 |
| 20260508234217 | 51 | 14 | 0.0 | 0.0 | 0.00 | 0.04 | 0.04 | 91 | 1011.0 |
| 20260508233712 | 51 | 14 | 0.0 | 0.0 | 0.00 | 0.04 | 0.04 | 90 | 1011.1 |
| 20260508233209 | 51 | 13 | 0.0 | 0.0 | 0.00 | 0.04 | 0.04 | 90 | 1011.0 |
| 20260508232706 | 51 | 13 | 0.0 | 0.0 | 0.00 | 0.04 | 0.04 | 89 | 1011.3 |
| 20260508232202 | 51 | 13 | 0.0 | 0.9 | 0.00 | 0.04 | 0.04 | 91 | 1011.1 |
| 20260508231701 | 51 | 13 | 0.0 | 0.0 | 0.00 | 0.04 | 0.04 | 92 | 1011.2 |
| 20260508231157 | 51 | 13 | 0.0 | 0.9 | 0.00 | 0.04 | 0.04 | 92 | 1011.1 |
| 20260508230654 | 51 | 13 | 0.0 | 0.0 | 0.00 | 0.04 | 0.04 | 92 | 1011.1 |
| 20260508230150 | 51 | 13 | 0.0 | 0.0 | 0.00 | 0.04 | 0.04 | 92 | 1011.4 |
| 20260508225649 | 51 | 13 | 0.0 | 0.0 | 0.00 | 0.04 | 0.04 | 92 | 1011.3 |
| 20260508225144 | 51 | 13 | 0.0 | 0.0 | 0.07 | 0.04 | 0.04 | 92 | 1011.2 |
| 20260508224643 | 51 | 12 | 0.9 | 0.9 | 0.07 | 0.04 | 0.04 | 92 | 1011.4 |
| 20260508224140 | 51 | 13 | 0.9 | 0.9 | 0.00 | 0.03 | 0.03 | 91 | 1011.3 |
| 20260508223637 | 51 | 10 | 1.7 | 2.6 | 0.00 | 0.03 | 0.03 | 91 | 1011.4 |
| 20260508223134 | 51 | 43 | 1.7 | 2.6 | 0.00 | 0.03 | 0.03 | 90 | 1011.1 |
| 20260508222632 | 51 | 70 | 0.9 | 0.9 | 0.00 | 0.03 | 0.03 | 90 | 1011.0 |
| 20260508222129 | 51 | 116 | 0.0 | 0.0 | 0.00 | 0.03 | 0.03 | 90 | 1011.0 |
| 20260508221625 | 51 | 115 | 0.9 | 0.9 | 0.00 | 0.03 | 0.03 | 91 | 1010.9 |
| 20260508221121 | 50 | 112 | 0.9 | 0.9 | 0.00 | 0.03 | 0.03 | 92 | 1010.6 |
| 20260508220618 | 50 | 131 | 2.6 | 3.5 | 0.00 | 0.03 | 0.03 | 91 | 1010.9 |
| 20260508220114 | 50 | 270 | 1.7 | 0.9 | 0.00 | 0.03 | 0.03 | 91 | 1011.1 |
| 20260508215611 | 50 | 271 | 0.0 | 0.9 | 0.00 | 0.03 | 0.03 | 91 | 1011.1 |
| 20260508215107 | 50 | 272 | 0.9 | 0.9 | 0.00 | 0.03 | 0.03 | 90 | 1011.3 |
| 20260508214604 | 50 | 272 | 0.9 | 0.9 | 0.00 | 0.03 | 0.03 | 89 | 1011.3 |
| 20260508214100 | 50 | 273 | 0.9 | 0.9 | 0.00 | 0.03 | 0.03 | 90 | 1011.4 |